| time (UTC) | temp F | wind direction | speed MPH | gust MPH | rain 1hr in | rain 24hr in | rain mn in | humidity % | barometer mb |
| 20260506153053 | 55 | 122 | 0.0 | 0.0 | 0.00 | 0.00 | 0.00 | 41 | |
| 20260506152556 | 55 | 122 | 0.0 | 0.0 | 0.00 | 0.00 | 0.00 | 42 | |
| 20260506152055 | 55 | 122 | 0.0 | 0.0 | 0.00 | 0.00 | 0.00 | 43 | |
| 20260506151557 | 54 | 122 | 0.0 | 0.0 | 0.00 | 0.00 | 0.00 | 44 | |
| 20260506151059 | 54 | 122 | 0.0 | 0.0 | 0.00 | 0.00 | 0.00 | 45 | |
| 20260506150104 | 53 | 122 | 0.0 | 0.0 | 0.00 | 0.00 | 0.00 | 47 | |
| 20260506145606 | 53 | 122 | 0.0 | 0.0 | 0.00 | 0.00 | 0.00 | 48 | |
| 20260506145105 | 53 | 122 | 0.0 | 0.0 | 0.00 | 0.00 | 0.00 | 49 | |
| 20260506144608 | 52 | 122 | 0.0 | 0.0 | 0.00 | 0.00 | 0.00 | 50 | |
| 20260506144110 | 52 | 122 | 0.0 | 0.0 | 0.00 | 0.00 | 0.00 | 52 | |
| 20260506143612 | 51 | 122 | 0.0 | 0.0 | 0.00 | 0.00 | 0.00 | 54 | |
| 20260506143152 | 51 | 122 | 0.0 | 0.0 | 0.00 | 0.00 | 0.00 | 56 | |
| 20260506143115 | 51 | 122 | 0.0 | 0.0 | 0.00 | 0.00 | 0.00 | 56 | |
| 20260506142618 | 50 | 122 | 0.0 | 0.0 | 0.00 | 0.00 | 0.00 | 59 | |
| 20260506142116 | 50 | 122 | 0.0 | 0.0 | 0.00 | 0.00 | 0.00 | 61 | |
| 20260506141657 | 49 | 122 | 0.0 | 0.0 | 0.00 | 0.00 | 0.00 | 64 | |
| 20260506141619 | 49 | 122 | 0.0 | 0.0 | 0.00 | 0.00 | 0.00 | 64 | |
| 20260506141121 | 48 | 122 | 0.0 | 0.0 | 0.00 | 0.00 | 0.00 | 66 | |
| 20260506140623 | 48 | 122 | 0.0 | 0.0 | 0.00 | 0.00 | 0.00 | 68 | |
| 20260506140126 | 47 | 122 | 0.0 | 0.0 | 0.00 | 0.00 | 0.00 | 70 | |
| 20260506135628 | 47 | 122 | 0.0 | 0.0 | 0.00 | 0.00 | 0.00 | 71 | |
| 20260506135127 | 46 | 122 | 0.0 | 0.0 | 0.00 | 0.00 | 0.00 | 73 | |
| 20260506134631 | 46 | 122 | 0.0 | 0.0 | 0.00 | 0.00 | 0.00 | ||
| 20260506133634 | 45 | 122 | 0.0 | 0.0 | 0.00 | 0.00 | 0.00 | 76 | |
| 20260506133136 | 45 | 122 | 0.0 | 0.0 | 0.00 | 0.00 | 0.00 | 78 | |
| 20260506132639 | 44 | 122 | 0.0 | 0.0 | 0.00 | 0.00 | 0.00 | 80 | |
| 20260506131641 | 44 | 122 | 0.0 | 3.0 | 0.00 | 0.00 | 0.00 | 82 | |
| 20260506131143 | 44 | 142 | 5.0 | 5.0 | 0.00 | 0.00 | 0.00 | 84 | |
| 20260506130645 | 44 | 149 | 5.0 | 5.0 | 0.00 | 0.00 | 0.00 | 85 | |
| 20260506130147 | 43 | 150 | 6.0 | 6.0 | 0.00 | 0.00 | 0.00 | 87 | |
| 20260506125650 | 43 | 165 | 7.0 | 7.0 | 0.00 | 0.00 | 0.00 | 89 | |
| 20260506125150 | 43 | 173 | 7.0 | 7.0 | 0.00 | 0.00 | 0.00 | 91 | |
| 20260506124651 | 42 | 173 | 7.0 | 7.0 | 0.00 | 0.00 | 0.00 | 92 | |
| 20260506124154 | 42 | 173 | 6.0 | 7.0 | 0.00 | 0.00 | 0.00 | 94 | |
| 20260506123656 | 41 | 170 | 6.0 | 6.0 | 0.00 | 0.00 | 0.00 | 94 | |
| 20260506123337 | 41 | 165 | 6.0 | 6.0 | 0.00 | 0.00 | 0.00 | 96 | |
| 20260506123200 | 41 | 165 | 6.0 | 6.0 | 0.00 | 0.00 | 0.00 | 96 | |
| 20260506122701 | 40 | 169 | 6.0 | 7.0 | 0.00 | 0.00 | 0.00 | 96 | |
| 20260506122200 | 40 | 173 | 6.0 | 6.0 | 0.00 | 0.00 | 0.00 | 95 | |
| 20260506121702 | 40 | 170 | 5.0 | 6.0 | 0.00 | 0.00 | 0.00 | 95 | |
| 20260506120707 | 40 | 197 | 5.0 | 5.0 | 0.00 | 0.00 | 0.00 | 95 | |
| 20260506120209 | 40 | 205 | 5.0 | 5.0 | 0.00 | 0.00 | 0.00 | 95 | |
| 20260506115711 | 40 | 215 | 6.0 | 6.0 | 0.00 | 0.00 | 0.00 | 95 | |
| 20260506115210 | 40 | 195 | 7.0 | 6.0 | 0.00 | 0.00 | 0.00 | 95 | |
| 20260506114713 | 41 | 215 | 7.0 | 6.0 | 0.00 | 0.00 | 0.00 | 95 | |
| 20260506114215 | 41 | 207 | 7.0 | 7.0 | 0.00 | 0.00 | 0.00 | 95 | |
| 20260506113718 | 41 | 210 | 7.0 | 6.0 | 0.00 | 0.00 | 0.00 | 95 | |
| 20260506113220 | 41 | 231 | 6.0 | 6.0 | 0.00 | 0.00 | 0.00 | 95 | |
| 20260506112723 | 41 | 226 | 7.0 | 8.0 | 0.00 | 0.00 | 0.00 | 95 | |
| 20260506112221 | 41 | 214 | 8.0 | 8.0 | 0.00 | 0.00 | 0.00 | 95 | |
| 20260506111801 | 41 | 233 | 6.0 | 5.0 | 0.00 | 0.00 | 0.00 | 95 | |
| 20260506111724 | 41 | 233 | 6.0 | 5.0 | 0.00 | 0.00 | 0.00 | 95 | |
| 20260506111226 | 41 | 232 | 8.0 | 6.0 | 0.00 | 0.00 | 0.00 | 95 | |
| 20260506110728 | 41 | 242 | 7.0 | 6.0 | 0.00 | 0.00 | 0.00 | 95 | |
| 20260506110231 | 41 | 239 | 7.0 | 8.0 | 0.00 | 0.00 | 0.00 | 94 | |
| 20260506105232 | 41 | 221 | 8.0 | 9.0 | 0.00 | 0.00 | 0.00 | 94 | |
| 20260506104735 | 41 | 224 | 8.0 | 6.0 | 0.00 | 0.00 | 0.00 | 94 | |
| 20260506104237 | 41 | 231 | 8.0 | 7.0 | 0.00 | 0.00 | 0.00 | 94 | |
| 20260506103739 | 41 | 212 | 8.0 | 6.0 | 0.00 | 0.00 | 0.00 | 94 | |
| 20260506103242 | 42 | 218 | 7.0 | 9.0 | 0.00 | 0.00 | 0.00 | 94 | |
| 20260506102744 | 42 | 228 | 8.0 | 7.0 | 0.00 | 0.00 | 0.00 | 94 | |
| 20260506102243 | 42 | 236 | 8.0 | 5.0 | 0.00 | 0.00 | 0.00 | 94 | |
| 20260506101745 | 42 | 233 | 8.0 | 10.0 | 0.00 | 0.00 | 0.00 | 94 | |
| 20260506101248 | 42 | 224 | 8.0 | 10.0 | 0.00 | 0.00 | 0.00 | 94 | |
| 20260506100753 | 42 | 233 | 9.0 | 9.0 | 0.00 | 0.00 | 0.00 | 94 | |
| 20260506100252 | 42 | 218 | 9.0 | 7.0 | 0.00 | 0.00 | 0.00 | 94 | |
| 20260506095755 | 42 | 231 | 9.0 | 10.0 | 0.00 | 0.00 | 0.00 | 95 | |
| 20260506095254 | 42 | 225 | 8.0 | 9.0 | 0.00 | 0.00 | 0.00 | 94 | |
| 20260506094757 | 42 | 233 | 9.0 | 9.0 | 0.00 | 0.00 | 0.00 | 95 | |
| 20260506094259 | 42 | 228 | 10.0 | 11.0 | 0.00 | 0.00 | 0.00 | 95 | |
| 20260506093802 | 42 | 238 | 9.0 | 9.0 | 0.00 | 0.00 | 0.00 | 95 | |
| 20260506093303 | 42 | 236 | 9.0 | 8.0 | 0.00 | 0.00 | 0.00 | 95 | |
| 20260506092806 | 42 | 235 | 7.0 | 8.0 | 0.00 | 0.00 | 0.00 | 95 | |
| 20260506092306 | 42 | 242 | 8.0 | 6.0 | 0.00 | 0.00 | 0.00 | 95 | |
| 20260506091807 | 42 | 239 | 10.0 | 9.0 | 0.00 | 0.00 | 0.00 | 95 | |
| 20260506091309 | 42 | 228 | 10.0 | 8.0 | 0.00 | 0.00 | 0.00 | 96 | |
| 20260506090812 | 42 | 242 | 11.0 | 11.0 | 0.00 | 0.00 | 0.00 | 96 | |
| 20260506090314 | 42 | 232 | 12.0 | 11.0 | 0.00 | 0.00 | 0.00 | 96 | |
| 20260506085901 | 42 | 252 | 10.0 | 9.0 | 0.00 | 0.00 | 0.00 | 96 | |
| 20260506085816 | 42 | 252 | 10.0 | 9.0 | 0.00 | 0.00 | 0.00 | 96 | |
| 20260506085316 | 42 | 243 | 11.0 | 9.0 | 0.00 | 0.00 | 0.00 | 96 | |
| 20260506084818 | 43 | 235 | 14.0 | 15.0 | 0.00 | 0.00 | 0.00 | 96 | |
| 20260506084320 | 43 | 245 | 9.0 | 9.0 | 0.00 | 0.00 | 0.00 | 96 | |
| 20260506083823 | 43 | 231 | 11.0 | 15.0 | 0.00 | 0.00 | 0.00 | 96 | |
| 20260506082827 | 43 | 243 | 9.0 | 7.0 | 0.00 | 0.00 | 0.00 | 97 | |
| 20260506082327 | 43 | 239 | 10.0 | 7.0 | 0.00 | 0.00 | 0.00 | 97 | |
| 20260506081829 | 43 | 243 | 12.0 | 9.0 | 0.00 | 0.00 | 0.00 | 97 | |
| 20260506081539 | 43 | 229 | 12.0 | 12.0 | 0.00 | 0.00 | 0.00 | 97 | |
| 20260506081331 | 43 | 229 | 12.0 | 12.0 | 0.00 | 0.00 | 0.00 | 97 | |
| 20260506080834 | 43 | 222 | 13.0 | 9.0 | 0.00 | 0.00 | 0.00 | 97 | |
| 20260506080454 | 42 | 219 | 10.0 | 14.0 | 0.00 | 0.00 | 0.00 | 97 | |
| 20260506080336 | 42 | 219 | 10.0 | 14.0 | 0.00 | 0.00 | 0.00 | 97 | |
| 20260506073347 | 43 | 214 | 10.0 | 11.0 | 0.00 | 0.00 | 0.00 | 95 | |
| 20260506072849 | 43 | 222 | 10.0 | 15.0 | 0.00 | 0.00 | 0.00 | 95 | |
| 20260506072348 | 43 | 255 | 12.0 | 9.0 | 0.00 | 0.00 | 0.00 | 95 | |
| 20260506071851 | 43 | 207 | 10.0 | 9.0 | 0.00 | 0.00 | 0.00 | 94 | |
| 20260506071353 | 43 | 219 | 13.0 | 15.0 | 0.00 | 0.00 | 0.00 | 94 | |
| 20260506070358 | 43 | 228 | 13.0 | 11.0 | 0.00 | 0.00 | 0.00 | 93 | |
| 20260506062410 | 43 | 208 | 11.0 | 7.0 | 0.00 | 0.00 | 0.00 | 89 | |
| 20260506061912 | 44 | 232 | 13.0 | 13.0 | 0.00 | 0.00 | 0.00 | 89 | |
| 20260506061415 | 44 | 238 | 11.0 | 10.0 | 0.00 | 0.00 | 0.00 | 88 | |
| 20260506060917 | 44 | 235 | 10.0 | 7.0 | 0.00 | 0.00 | 0.00 | 87 | |
| 20260506060420 | 44 | 233 | 10.0 | 7.0 | 0.00 | 0.00 | 0.00 | 87 | |
| 20260506051104 | 45 | 221 | 12.0 | 11.0 | 0.00 | 0.00 | 0.00 | 80 | |
| 20260506050939 | 45 | 221 | 12.0 | 11.0 | 0.00 | 0.00 | 0.00 | 80 | |
| 20260506050441 | 45 | 214 | 12.0 | 11.0 | 0.00 | 0.00 | 0.00 | 79 | |
| 20260506044945 | 45 | 224 | 13.0 | 13.0 | 0.00 | 0.00 | 0.00 | 78 | |
| 20260506044448 | 45 | 233 | 11.0 | 10.0 | 0.00 | 0.00 | 0.00 | 77 | |
| 20260506043950 | 45 | 205 | 12.0 | 9.0 | 0.00 | 0.00 | 0.00 | 77 | |
| 20260506043453 | 45 | 212 | 11.0 | 11.0 | 0.00 | 0.00 | 0.00 | 76 | |
| 20260506042955 | 45 | 214 | 11.0 | 11.0 | 0.00 | 0.00 | 0.00 | 75 | |
| 20260506042454 | 45 | 217 | 8.0 | 13.0 | 0.00 | 0.00 | 0.00 | 74 | |
| 20260506041956 | 45 | 229 | 11.0 | 10.0 | 0.00 | 0.00 | 0.00 | 74 | |
| 20260506041458 | 45 | 215 | 11.0 | 9.0 | 0.00 | 0.00 | 0.00 | 72 | |
| 20260506041001 | 45 | 210 | 12.0 | 8.0 | 0.00 | 0.00 | 0.00 | 71 | |
| 20260506040006 | 46 | 222 | 12.0 | 10.0 | 0.00 | 0.00 | 0.00 | 69 | |
| 20260506035505 | 46 | 226 | 11.0 | 9.0 | 0.00 | 0.00 | 0.00 | 68 | |
| 20260506035007 | 46 | 210 | 12.0 | 13.0 | 0.00 | 0.00 | 0.00 | 66 | |
| 20260506034509 | 46 | 225 | 12.0 | 12.0 | 0.00 | 0.00 | 0.00 | 65 | |
| 20260506034012 | 46 | 201 | 10.0 | 10.0 | 0.00 | 0.00 | 0.00 | 64 | |
| 20260506033514 | 47 | 212 | 11.0 | 12.0 | 0.00 | 0.00 | 0.00 | 62 | |
| 20260506033056 | 47 | 224 | 11.0 | 13.0 | 0.00 | 0.00 | 0.00 | ||
| 20260506033018 | 47 | 224 | 11.0 | 13.0 | 0.00 | 0.00 | 0.00 | ||
| 20260506032516 | 47 | 214 | 8.0 | 11.0 | 0.00 | 0.00 | 0.00 | 59 | |
| 20260506031520 | 47 | 218 | 10.0 | 10.0 | 0.00 | 0.00 | 0.00 | 57 | |
| 20260506031023 | 47 | 219 | 8.0 | 10.0 | 0.00 | 0.00 | 0.00 | 56 | |
| 20260506030525 | 48 | 205 | 9.0 | 8.0 | 0.00 | 0.00 | 0.00 | 55 | |
| 20260506030027 | 48 | 219 | 10.0 | 9.0 | 0.00 | 0.00 | 0.00 | 54 | |
| 20260506025526 | 48 | 226 | 10.0 | 9.0 | 0.00 | 0.00 | 0.00 | 53 | |
| 20260506025128 | 57 | 210 | 11.0 | 14.0 | 0.00 | 0.00 | 0.00 | 36 | |
| 20260506025029 | 48 | 240 | 10.0 | 7.0 | 0.00 | 0.00 | 0.00 | 52 | |
| 20260506024531 | 49 | 222 | 8.0 | 12.0 | 0.00 | 0.00 | 0.00 | 51 | |
| 20260506024034 | 49 | 228 | 10.0 | 13.0 | 0.00 | 0.00 | 0.00 | 51 | |
| 20260506023536 | 49 | 229 | 10.0 | 12.0 | 0.00 | 0.00 | 0.00 | 50 | |
| 20260506023038 | 49 | 225 | 10.0 | 14.0 | 0.00 | 0.00 | 0.00 | 50 | |
| 20260506022537 | 49 | 229 | 11.0 | 13.0 | 0.00 | 0.00 | 0.00 | 49 | |
| 20260506022040 | 49 | 225 | 14.0 | 14.0 | 0.00 | 0.00 | 0.00 | 49 | |
| 20260506021542 | 50 | 242 | 10.0 | 6.0 | 0.00 | 0.00 | 0.00 | 49 | |
| 20260506021044 | 50 | 228 | 8.0 | 5.0 | 0.00 | 0.00 | 0.00 | 48 | |
| 20260506020547 | 50 | 218 | 10.0 | 10.0 | 0.00 | 0.00 | 0.00 | 48 | |
| 20260506020049 | 50 | 211 | 7.0 | 11.0 | 0.00 | 0.00 | 0.00 | 47 | |
| 20260506015548 | 51 | 201 | 11.0 | 13.0 | 0.00 | 0.00 | 0.00 | 46 | |
| 20260506015051 | 51 | 203 | 11.0 | 8.0 | 0.00 | 0.00 | 0.00 | 45 | |
| 20260506014553 | 52 | 231 | 9.0 | 11.0 | 0.00 | 0.00 | 0.00 | 44 | |
| 20260506014256 | 52 | 208 | 6.0 | 4.0 | 0.00 | 0.00 | 0.00 | 44 | |
| 20260506014055 | 52 | 208 | 6.0 | 4.0 | 0.00 | 0.00 | 0.00 | 44 | |
| 20260506013558 | 52 | 232 | 10.0 | 13.0 | 0.00 | 0.00 | 0.00 | 44 | |
| 20260506013100 | 53 | 233 | 7.0 | 7.0 | 0.00 | 0.00 | 0.00 | 43 | |
| 20260506012559 | 53 | 221 | 9.0 | 12.0 | 0.00 | 0.00 | 0.00 | 42 | |
| 20260506012146 | 54 | 215 | 9.0 | 10.0 | 0.00 | 0.00 | 0.00 | 40 | |
| 20260506012102 | 54 | 215 | 9.0 | 10.0 | 0.00 | 0.00 | 0.00 | 40 | |
| 20260506011604 | 55 | 221 | 9.0 | 15.0 | 0.00 | 0.00 | 0.00 | 40 | |
| 20260506011143 | 55 | 222 | 9.0 | 8.0 | 0.00 | 0.00 | 0.00 | 39 | |
| 20260506011106 | 55 | 222 | 9.0 | 8.0 | 0.00 | 0.00 | 0.00 | 39 | |
| 20260506010610 | 55 | 203 | 12.0 | 7.0 | 0.00 | 0.00 | 0.00 | 38 | |
| 20260506010111 | 55 | 226 | 10.0 | 10.0 | 0.00 | 0.00 | 0.00 | 38 | |
| 20260506005649 | 56 | 219 | 9.0 | 8.0 | 0.00 | 0.00 | 0.00 | 38 | |
| 20260506005610 | 56 | 219 | 9.0 | 8.0 | 0.00 | 0.00 | 0.00 | 38 | |
| 20260506005112 | 56 | 167 | 10.0 | 7.0 | 0.00 | 0.00 | 0.00 | 37 | |
| 20260506004615 | 56 | 211 | 6.0 | 5.0 | 0.00 | 0.00 | 0.00 | 37 | |
| 20260506004117 | 56 | 215 | 12.0 | 0.0 | 0.00 | 0.00 | 0.00 | 37 | |
| 20260506003122 | 57 | 210 | 11.0 | 14.0 | 0.00 | 0.00 | 0.00 | 36 | |
| 20260506002740 | 57 | 190 | 6.0 | 0.0 | 0.00 | 0.00 | 0.00 | 35 | |
| 20260506002622 | 57 | 190 | 6.0 | 0.0 | 0.00 | 0.00 | 0.00 | 35 | |
| 20260506002123 | 57 | 210 | 2.0 | 0.0 | 0.00 | 0.00 | 0.00 | 35 | |
| 20260506001626 | 57 | 207 | 8.0 | 0.0 | 0.00 | 0.00 | 0.00 | 35 | |
| 20260506001128 | 57 | 214 | 7.0 | 15.0 | 0.00 | 0.00 | 0.00 | 34 | |
| 20260506000704 | 57 | 236 | 7.0 | 10.0 | 0.00 | 0.00 | 0.00 | 35 | |
| 20260506000630 | 57 | 236 | 7.0 | 10.0 | 0.00 | 0.00 | 0.00 | 35 | |
| 20260505235633 | 57 | 224 | 11.0 | 5.0 | 0.00 | 0.00 | 0.00 | 35 | |
| 20260505235134 | 57 | 229 | 5.0 | 12.0 | 0.00 | 0.00 | 0.00 | 35 | |
| 20260505234637 | 57 | 229 | 9.0 | 10.0 | 0.00 | 0.00 | 0.00 | 36 | |
| 20260505234139 | 57 | 190 | 5.0 | 10.0 | 0.00 | 0.00 | 0.00 | 35 | |
| 20260505233641 | 57 | 225 | 11.0 | 12.0 | 0.00 | 0.00 | 0.00 | 35 | |
| 20260505233144 | 57 | 203 | 8.0 | 8.0 | 0.00 | 0.00 | 0.00 | 36 | |
| 20260505232643 | 57 | 218 | 12.0 | 9.0 | 0.00 | 0.00 | 0.00 | 36 | |
| 20260505232146 | 57 | 205 | 7.0 | 8.0 | 0.00 | 0.00 | 0.00 | 36 | |
| 20260505231647 | 57 | 169 | 11.0 | 8.0 | 0.00 | 0.00 | 0.00 | 37 | |
| 20260505231150 | 56 | 232 | 13.0 | 12.0 | 0.00 | 0.00 | 0.00 | 37 | |
| 20260505230155 | 56 | 187 | 8.0 | 9.0 | 0.00 | 0.00 | 0.00 | 38 | |
| 20260505225654 | 57 | 219 | 14.0 | 12.0 | 0.00 | 0.00 | 0.00 | 37 | |
| 20260505225156 | 57 | 194 | 12.0 | 14.0 | 0.00 | 0.00 | 0.00 | 37 | |
| 20260505224658 | 57 | 211 | 8.0 | 11.0 | 0.00 | 0.00 | 0.00 | 37 | |
| 20260505224201 | 57 | 222 | 14.0 | 17.0 | 0.00 | 0.00 | 0.00 | 37 | |
| 20260505223703 | 56 | 217 | 11.0 | 13.0 | 0.00 | 0.00 | 0.00 | 38 | |
| 20260505223205 | 56 | 191 | 14.0 | 15.0 | 0.00 | 0.00 | 0.00 | 37 | |
| 20260505222705 | 56 | 215 | 11.0 | 6.0 | 0.00 | 0.00 | 0.00 | 39 | |
| 20260505222207 | 56 | 211 | 11.0 | 14.0 | 0.00 | 0.00 | 0.00 | 40 | |
| 20260505221709 | 55 | 193 | 13.0 | 15.0 | 0.00 | 0.00 | 0.00 | 40 | |
| 20260505221212 | 54 | 201 | 12.0 | 16.0 | 0.00 | 0.00 | 0.00 | 42 | |
| 20260505220714 | 54 | 205 | 13.0 | 10.0 | 0.00 | 0.00 | 0.00 | 43 | |
| 20260505220248 | 54 | 184 | 17.0 | 13.0 | 0.00 | 0.00 | 0.00 | 43 | |
| 20260505220216 | 54 | 184 | 17.0 | 13.0 | 0.00 | 0.00 | 0.00 | 43 | |
| 20260505215716 | 54 | 193 | 12.0 | 16.0 | 0.00 | 0.00 | 0.00 | 43 | |
| 20260505215218 | 55 | 195 | 13.0 | 6.0 | 0.00 | 0.00 | 0.00 | 42 | |
| 20260505214720 | 55 | 210 | 15.0 | 17.0 | 0.00 | 0.00 | 0.00 | 43 | |
| 20260505214223 | 55 | 183 | 18.0 | 12.0 | 0.00 | 0.00 | 0.00 | 41 | |
| 20260505213725 | 56 | 203 | 10.0 | 9.0 | 0.00 | 0.00 | 0.00 | 40 | |
| 20260505213227 | 56 | 198 | 13.0 | 7.0 | 0.00 | 0.00 | 0.00 | 39 | |
| 20260505212828 | 57 | 217 | 13.0 | 21.0 | 0.00 | 0.00 | 0.00 | 37 | |
| 20260505212726 | 57 | 217 | 13.0 | 21.0 | 0.00 | 0.00 | 0.00 | 37 | |
| 20260505212229 | 57 | 212 | 11.0 | 9.0 | 0.00 | 0.00 | 0.00 | 38 | |
| 20260505211818 | 57 | 200 | 15.0 | 13.0 | 0.00 | 0.00 | 0.00 | 38 | |
| 20260505211732 | 57 | 200 | 15.0 | 13.0 | 0.00 | 0.00 | 0.00 | 38 | |
| 20260505210737 | 56 | 195 | 12.0 | 13.0 | 0.00 | 0.00 | 0.00 | 40 | |
| 20260505210239 | 55 | 190 | 13.0 | 9.0 | 0.00 | 0.00 | 0.00 | 39 | |
| 20260505205738 | 55 | 222 | 10.0 | 12.0 | 0.00 | 0.00 | 0.00 | 40 | |
| 20260505205240 | 55 | 205 | 16.0 | 14.0 | 0.00 | 0.00 | 0.00 | 40 | |
| 20260505204742 | 55 | 229 | 14.0 | 6.0 | 0.00 | 0.00 | 0.00 | 41 | |
| 20260505204245 | 55 | 218 | 14.0 | 6.0 | 0.00 | 0.00 | 0.00 | 40 | |
| 20260505203747 | 55 | 211 | 10.0 | 13.0 | 0.00 | 0.00 | 0.00 | 42 | |
| 20260505203250 | 55 | 211 | 15.0 | 15.0 | 0.00 | 0.00 | 0.00 | 41 | |
| 20260505202749 | 55 | 169 | 16.0 | 14.0 | 0.00 | 0.00 | 0.00 | 41 | |
| 20260505202251 | 55 | 204 | 12.0 | 11.0 | 0.00 | 0.00 | 0.00 | 41 | |
| 20260505201753 | 55 | 203 | 11.0 | 18.0 | 0.00 | 0.00 | 0.00 | 41 | |
| 20260505201255 | 55 | 218 | 15.0 | 8.0 | 0.00 | 0.00 | 0.00 | 42 | |
| 20260505200758 | 55 | 188 | 15.0 | 17.0 | 0.00 | 0.00 | 0.00 | 44 | |
| 20260505200300 | 54 | 198 | 16.0 | 18.0 | 0.00 | 0.00 | 0.00 | 45 | |
| 20260505195304 | 53 | 184 | 17.0 | 14.0 | 0.00 | 0.00 | 0.00 | 49 | |
| 20260505194306 | 52 | 176 | 18.0 | 18.0 | 0.00 | 0.00 | 0.00 | 49 | |
| 20260505193809 | 52 | 180 | 18.0 | 21.0 | 0.00 | 0.00 | 0.00 | 48 | |
| 20260505193311 | 52 | 203 | 15.0 | 16.0 | 0.00 | 0.00 | 0.00 | 49 | |
| 20260505192810 | 52 | 187 | 17.0 | 12.0 | 0.00 | 0.00 | 0.00 | 50 | |
| 20260505192313 | 52 | 200 | 20.0 | 21.0 | 0.00 | 0.00 | 0.00 | 49 | |
| 20260505191815 | 52 | 188 | 17.0 | 19.0 | 0.00 | 0.00 | 0.00 | 47 | |
| 20260505191318 | 52 | 190 | 16.0 | 23.0 | 0.00 | 0.00 | 0.00 | 46 | |
| 20260505190820 | 52 | 172 | 15.0 | 15.0 | 0.00 | 0.00 | 0.00 | 48 | |
| 20260505190322 | 52 | 187 | 18.0 | 17.0 | 0.00 | 0.00 | 0.00 | 48 | |
| 20260505185821 | 53 | 205 | 15.0 | 14.0 | 0.00 | 0.00 | 0.00 | 47 | |
| 20260505185324 | 53 | 201 | 13.0 | 13.0 | 0.00 | 0.00 | 0.00 | 47 | |
| 20260505184826 | 53 | 166 | 16.0 | 14.0 | 0.00 | 0.00 | 0.00 | 47 | |
| 20260505184328 | 53 | 180 | 13.0 | 14.0 | 0.00 | 0.00 | 0.00 | 47 | |
| 20260505183831 | 53 | 190 | 14.0 | 16.0 | 0.00 | 0.00 | 0.00 | 46 | |
| 20260505183333 | 53 | 184 | 11.0 | 11.0 | 0.00 | 0.00 | 0.00 | 46 | |
| 20260505182832 | 53 | 156 | 0.0 | 0.0 | 0.00 | 0.00 | 0.00 | 46 | |
| 20260505182335 | 53 | 156 | 0.0 | 0.0 | 0.00 | 0.00 | 0.00 | 46 | |
| 20260505181837 | 53 | 156 | 0.0 | 0.0 | 0.00 | 0.00 | 0.00 | 45 | |
| 20260505181339 | 53 | 156 | 0.0 | 0.0 | 0.00 | 0.00 | 0.00 | 44 | |
| 20260505180842 | 53 | 156 | 0.0 | 0.0 | 0.00 | 0.00 | 0.00 | 45 | |
| 20260505180344 | 54 | 156 | 0.0 | 0.0 | 0.00 | 0.00 | 0.00 | 45 | |
| 20260505175843 | 54 | 156 | 0.0 | 0.0 | 0.00 | 0.00 | 0.00 | 45 | |
| 20260505175346 | 54 | 156 | 0.0 | 0.0 | 0.00 | 0.00 | 0.00 | 44 | |
| 20260505174848 | 54 | 156 | 0.0 | 0.0 | 0.00 | 0.00 | 0.00 | 45 | |
| 20260505174350 | 54 | 217 | 0.0 | 0.0 | 0.00 | 0.00 | 0.00 | 46 | |
| 20260505173853 | 54 | 217 | 0.0 | 0.0 | 0.00 | 0.00 | 0.00 | 47 | |
| 20260505173355 | 53 | 217 | 0.0 | 0.0 | 0.00 | 0.00 | 0.00 | 47 | |
| 20260505172854 | 53 | 217 | 0.0 | 0.0 | 0.00 | 0.00 | 0.00 | 48 | |
| 20260505172357 | 53 | 217 | 0.0 | 0.0 | 0.00 | 0.00 | 0.00 | 52 | |
| 20260505171859 | 52 | 217 | 0.0 | 0.0 | 0.00 | 0.00 | 0.00 | 51 | |
| 20260505171401 | 52 | 248 | 0.0 | 0.0 | 0.00 | 0.00 | 0.00 | 49 | |
| 20260505170957 | 52 | 248 | 0.0 | 0.0 | 0.00 | 0.00 | 0.00 | 50 | |
| 20260505170904 | 52 | 248 | 0.0 | 0.0 | 0.00 | 0.00 | 0.00 | 50 | |
| 20260505170406 | 52 | 248 | 0.0 | 0.0 | 0.00 | 0.00 | 0.00 | 51 | |
| 20260505165905 | 51 | 248 | 0.0 | 0.0 | 0.00 | 0.00 | 0.00 | 51 | |
| 20260505165408 | 51 | 248 | 0.0 | 0.0 | 0.00 | 0.00 | 0.00 | 53 | |
| 20260505164910 | 51 | 248 | 0.0 | 0.0 | 0.00 | 0.00 | 0.00 | 54 | |
| 20260505164412 | 51 | 248 | 0.0 | 0.0 | 0.00 | 0.00 | 0.00 | 54 | |
| 20260505163417 | 51 | 248 | 0.0 | 0.0 | 0.00 | 0.00 | 0.00 | 57 | |
| 20260505163019 | 50 | 248 | 0.0 | 0.0 | 0.00 | 0.00 | 0.00 | 61 | |
| 20260505162916 | 50 | 248 | 0.0 | 0.0 | 0.00 | 0.00 | 0.00 | 61 | |
| 20260505162418 | 50 | 248 | 0.0 | 0.0 | 0.00 | 0.00 | 0.00 | 62 | |
| 20260505161921 | 50 | 248 | 0.0 | 0.0 | 0.00 | 0.00 | 0.00 | 61 | |
| 20260505161424 | 50 | 248 | 0.0 | 0.0 | 0.00 | 0.00 | 0.00 | 59 | |
| 20260505160926 | 50 | 248 | 0.0 | 0.0 | 0.00 | 0.00 | 0.00 | 60 | |
| 20260505160428 | 50 | 248 | 0.0 | 0.0 | 0.00 | 0.00 | 0.00 | 59 |